This is the latest recevied weather packets stored in our database for station/object WE1C. If no packets are shown the sender has not sent any weather packets the latest 10 day(s).
| Time | Temp. | Humidity | Pressure | Rain* | Wind** | Luminosity | Snow |
|---|---|---|---|---|---|---|---|
| 1777893297 | 8.89° C | 55% | 1040 hPa | 0 mm | - | 51 W/m² | - |
| 1777892993 | 9.44° C | 54% | 1039.7 hPa | 0 mm | - | 47 W/m² | - |
| 1777892691 | 8.89° C | 56% | 1039.8 hPa | 0 mm | - | 73 W/m² | - |
| 1777892386 | 8.33° C | 60% | 1040.1 hPa | 0 mm | - | 113 W/m² | - |
| 1777892082 | 7.78° C | 61% | 1039.9 hPa | 0 mm | - | 66 W/m² | - |
| 1777891780 | 7.22° C | 62% | 1040.1 hPa | 0 mm | - | 49 W/m² | - |
| 1777891477 | 6.67° C | 64% | 1039.9 hPa | 0 mm | - | 42 W/m² | - |
| 1777891173 | 6.11° C | 64% | 1039.9 hPa | 0 mm | - | 39 W/m² | - |
| 1777890872 | 5.56° C | 67% | 1039.9 hPa | 0 mm | - | 35 W/m² | - |
| 1777890568 | 4.44° C | 68% | 1040 hPa | 0 mm | - | 32 W/m² | - |
| 1777890264 | 4.44° C | 73% | 1040.1 hPa | 0 mm | - | 29 W/m² | - |
| 1777889960 | 3.89° C | 72% | 1040.2 hPa | 0 mm | - | 26 W/m² | - |
| 1777889659 | 3.33° C | 75% | 1040.2 hPa | 0 mm | - | 23 W/m² | - |
| 1777889355 | 3.33° C | 76% | 1040.2 hPa | 0 mm | - | 19 W/m² | - |
| 1777889053 | 3.33° C | 76% | 1040.2 hPa | 0 mm | - | 15 W/m² | - |
| 1777888750 | 3.33° C | 76% | 1040 hPa | 0 mm | - | 12 W/m² | - |
| 1777888446 | 3.33° C | 76% | 1039.7 hPa | 0 mm | - | 8 W/m² | - |
| 1777888142 | 3.33° C | 75% | 1040.1 hPa | 0 mm | - | 6 W/m² | - |
| 1777887840 | 3.33° C | 74% | 1040.1 hPa | 0 mm | - | 4 W/m² | - |
| 1777887536 | 3.33° C | 75% | 1040 hPa | 0 mm | - | 1 W/m² | - |
| 1777887232 | 3.89° C | 74% | 1039.9 hPa | 0 mm | - | 0 W/m² | - |
| 1777886928 | 3.89° C | 73% | 1039.9 hPa | 0 mm | - | 0 W/m² | - |
| 1777886624 | 3.89° C | 72% | 1039.8 hPa | 0 mm | - | 0 W/m² | - |
| 1777886322 | 3.89° C | 71% | 1039.7 hPa | 0 mm | - | 0 W/m² | - |
| 1777886019 | 4.44° C | 71% | 1039.7 hPa | 0 mm | - | 0 W/m² | - |
* Rain latest hour (hover to see other rain measurements)
** Current wind speed in m/s (hover to see current wind gust speed)